Powrót do katalogu

ARIANE 42P+ DEB

LostHEO
NORAD 34199·DEBRIS·🇫🇷 France

Wystrzelony Oct 28, 1992 z Guiana Space Centre

Loading…

Następne Przeloty (najbliższe 24 godziny)

TLE

NieaktualneSource: Space-Track

Epoka: Mar 16, 2026, 20:09 UTC

1 34199U 92072AF  26075.84018745 -.00000108  00000-0  00000-0 0  9993
2 34199   6.6456 257.1362 6439273 315.8942   7.7514  2.90735483139083

Śledź ARIANE 42P+ DEB w czasie rzeczywistym z AllMySat

Download on the App Store